Location: ?????
(37.7324°N, 23.9257°E)
Time: 07:54:55
(UTC+00:00)

BREEZE-M DEB (TANK) - Pass Details

Date: 29 November 2020
Orbit: 273 x 14177 km, 49.5° (Epoch: 17 January)

Event Time Altitude Azimuth Distance (km) Brightness Sun altitude
Exits shadow 03:31:54 25° 318° (NW) 2,359 5.5 -20.8°
Maximum altitude 03:35:28 42° 13° (NNE) 1,119 4.3 -20.1°
Drops below altitude 10° 03:38:37 10° 88° (E) 1,641 6.4 -19.5°
Sets 03:40:00 0° 97° (E) 2,243 7.6 -19.2°
